{"data":{"norad_id":52469,"epoch":"2026-05-25T02:22:06.573216Z","epoch_age_seconds":63593,"freshness":"FRESH","line1":"1 52469U 22049U   26145.09868719 -.00000041  00000+0  15505-4 0  9994","line2":"2 52469  53.2126  76.1142 0001571  80.9834 279.1336 15.08838974223780","mean_motion":15.08838974,"eccentricity":0.0001571,"inclination_deg":53.2126,"raan_deg":76.1142,"arg_perigee_deg":80.9834,"mean_anomaly_deg":279.1336,"bstar":1.5505e-5,"rev_number":22378,"period_min":95.437619574639,"perigee_km":538.65972553564,"apogee_km":540.83332453921,"semimajor_km":6917.8835250374,"source":"CELESTRAK","updated_at":"2026-05-25T13:38:17.152645Z"}}